This demonstration page uses our WeatherBlox Daily Observations layout. Learn more.

Left ArrowRight Arrow

47.50024, -111.30081

Hourly Observations for May 16, 2017

Temp ( °F °C ) Dew Point ( °F °C ) Humidity (%) Winds ( mph kmh ) Pressure ( in mb ) Visibility ( mi km ) Precip ( " mm )
12:53 am 00:53 Clear 41 5 24 -4.4 51 51 Calm 29.78 1009 10 16 0.00 0.00
1:53 am 01:53 Clear 37 2.8 25 -3.9 62 62 SSW 7 11 29.78 1009 10 16 0.00 0.00
2:53 am 02:53 Clear 40 4.4 25 -3.9 55 55 SW 5 7 29.75 1007 10 16 0.00 0.00
3:53 am 03:53 Clear 34 1.1 26 -3.3 73 73 SW 5 7 29.75 1008 10 16 0.00 0.00
4:53 am 04:53 Clear 37 2.8 29 -1.7 73 73 S 5 7 29.74 1007 10 16 0.00 0.00
5:53 am 05:53 Mostly Cloudy 35 1.7 30 -1.1 82 82 Calm 29.74 1007 10 16 0.00 0.00
6:53 am 06:53 Cloudy 41 5 33 0.6 73 73 Calm 29.70 1006 10 16 0.00 0.00
7:53 am 07:53 Cloudy 46 7.8 36 2.2 68 68 SSW 7 11 29.67 1005 10 16 0.00 0.00
8:53 am 08:53 Sunny 49 9.4 35 1.7 59 59 SSE 7 11 29.65 1004 10 16 0.00 0.00
9:53 am 09:53 Sunny 53 11.7 35 1.7 51 51 ESE 5 7 29.63 1003 10 16 0.00 0.00
10:53 am 10:53 Sunny 57 13.9 34 1.1 42 42 E 7 11 29.60 1003 10 16 0.00 0.00
11:53 am 11:53 Sunny 60 15.6 31 -0.6 33 33 E 9 15 29.58 1002 10 16 0.00 0.00
12:53 pm 12:53 Mostly Sunny 62 16.7 30 -1.1 30 30 VRB 5 7 29.54 1000 10 16 0.00 0.00
1:53 pm 13:53 Partly Cloudy 61 16.1 32 0 34 34 E 8 13 29.54 1000 10 16 0.00 0.00
2:53 pm 14:53 Cloudy with Light Rain 57 13.9 36 2.2 45 45 NW 9 15 29.54 1000 10 16 0.00 0.03
3:46 pm 15:46 Cloudy 55 12.8 36 2.2 49 49 W 23 37 29.50 999 10 16 0.00 0.03
3:53 pm 15:53 Cloudy 55 12.8 37 2.8 51 51 SW 21 33 29.59 1002 10 16 0.00 0.03
4:53 pm 16:53 Cloudy with Light Rain 50 10 43 6.1 77 77 W 9 15 29.61 1003 10 16 0.00 0.03
5:53 pm 17:53 Mostly Sunny 56 13.3 34 1.1 44 44 Calm 29.59 1002 10 16 0.00 0.03
6:53 pm 18:53 Mostly Sunny 53 11.7 39 3.9 59 59 E 9 15 29.57 1002 10 16 0.00 0.00
7:53 pm 19:53 Cloudy 52 11.1 40 4.4 64 64 NE 14 22 29.57 1001 10 16 0.00 0.00
8:53 pm 20:53 Cloudy with Light Rain 49 9.4 42 5.6 77 77 ENE 12 19 29.58 1002 10 16 0.01 0.25
9:53 pm 21:53 Cloudy with Light Rain 46 7.8 43 6.1 89 89 NNE 9 15 29.58 1002 10 16 0.01 0.25
10:33 pm 22:33 Cloudy with Rain 46 7.8 43 6.1 89 89 Calm 29.59 1002 7 11 0.00 0.03
10:42 pm 22:42 Cloudy with Rain 46 7.8 43 6.1 89 89 E 5 7 29.59 1002 4 6 0.03 0.76
10:53 pm 22:53 Cloudy with Light Rain 46 7.8 44 6.7 93 93 SE 3 6 29.58 1002 5 8 0.06 1.52
11:04 pm 23:04 Cloudy with Rain 46 7.8 44 6.7 93 93 Calm 29.59 1002 5 8 0.02 0.51
11:53 pm 23:53 Cloudy with Light Rain 45 7.2 43 6.1 93 93 N 7 11 29.56 1001 5 8 0.16 4.06

Powered by AerisWeather